STARLINK-34214, 64190

Orbit data source: Space-Track

STARLINK-34214, 64190 is a payload satellite owned by SpaceX/Seattle (US) in LEO that was launched on Wed, 28 May 2025 UTC via an FALCON 9 launch vehicle from the Air Force Eastern Test Range (AFETR). Payload-class satellites include a variety of spacecraft equipped with specific instruments for various scientific and technological missions. These include communications satellites like Starlink; space stations such as the ISS; scientific satellites like the Hubble; Earth observation satellites from companies like Planet Labs, Umbra, and HawkEye 360; GPS; miniature CubeSats for education and research; and military/defense satellites.

Loading next visibility...
Identifier
64190, 2025-113W
Orbit
LEO
Country
Flag of USUS
Related business
Manufacturer
SpaceX/Seattle
Mission
Operational Commercial Communications
Bus & Motor
STARLINK V2MO, Unknown motor
Mass
575 kg wet, ~530 kg dry
Launch date (UTC)
2025-05-28 (1 year ago)
Launch vehicle
FALCON 9
Launch site
Air Force Eastern Test Range (AFETR)
Object type
Payload
Rocket body
Debris
Shape & HBR
Box + 2 Pan, 17.7 m
Radar Cross Section
36.964 m², Large (>1 m²)

Expand to show TLE details & history
Last TLE update: 10 hours ago

TLE from 10 hours ago
0 STARLINK-34214
1 64190U 25113W   26171.43733076  .00015892  00000-0  54769-3 0  9991
2 64190  53.1618 334.0610 0001115  88.9649 271.1480 15.30191511 60797
Epoch: 2026-06-20T10:29Z
TLE epoch observation values (Epoch: 2026-06-20T10:29:45.377Z)
Latitude
0.00001°
Longitude
-92.03003°
Altitude
476.125 km
Speed
7.629 km/s
True Right ascension
22h 16m 14s
True Declination
0° 00' 00"
Sunlit
Object was in full shadow at epoch
Visualization orbit readout
Latitude
Unknown
Longitude
Unknown
Altitude
Unknown
Speed
Unknown
Apparent Right ascension
Unknown
Apparent Declination
Unknown
Sunlit
N/A
Visualization observer readout
Local Sidereal Time
07:17:36
Azimuth
Unknown
Elevation
Unknown
Doppler factor
Unknown
Orbital elements
Apogee altitude
476.261 km
Perigee altitude
474.732 km
Semi-major axis
6,853.634 km
Eccentricity
0.00011
Inclination
53.1618°
RAAN
334.061°
Arg. of periapsis
88.9649°
True anomaly
271.13523°
Mean anomaly
271.148°
Eccentric anomaly
271.14161°
Mean motion
3.82527 °/min
Orbital period
94.11 mins
BSTAR
0.00054769
Loading maneuver chart data...
Computing Atmospheric mass density...
Loading historical data...
Loading historical data...
Loading historical data...
Loading historical data...
Loading historical data...
Loading historical data...
Loading historical data...

Documentation

Showing up to 5 results
|